FW0683 Weather Reports


time (UTC)temp
F
wind
direction
speed
knots
gust
knots
rain 1hr
in
rain 24hr
in
rain mn
in
humidity
%
barometer
mb
20260904161559 80 354 0.0 0.0 0.00 0.25 0.01 68 1012.5
20260904160053 80 38 0.0 0.0 0.00 0.25 0.01 72 1012.7
20260904154550 79 33 0.0 0.0 0.00 0.25 0.01 74 1012.8
20260904153058 79 54 0.0 0.0 0.00 0.25 0.01 75 1012.9
20260904151545 78 3 0.0 0.0 0.00 0.25 0.01 79 1013.0
20260904150042 76 349 0.0 0.0 0.00 0.25 0.01 80 1013.1
20260904144539 76 85 0.0 0.0 0.00 0.25 0.01 80 1013.1
20260904143037 75 10 0.0 0.0 0.00 0.25 0.01 83 1013.4
20260904141539 74 23 0.0 0.0 0.00 0.25 0.01 87 1013.4
20260904140035 73 352 0.0 0.0 0.00 0.25 0.01 88 1013.6
20260904134533 72 58 0.0 0.0 0.00 0.25 0.01 89 1013.5
20260904133023 71 330 0.0 0.0 0.00 0.25 0.01 92 1013.5
20260904131520 70 330 0.0 0.0 0.00 0.25 0.01 93 1013.7
20260904130017 69 3 0.0 0.0 0.00 0.26 0.01 94 1013.7
20260904124515 68 44 0.0 0.0 0.00 0.26 0.01 94 1013.6
20260904123012 66 43 0.0 0.0 0.00 0.26 0.01 95 1013.7
20260904121511 66 44 0.0 0.0 0.00 0.26 0.01 95 1013.9
20260904120009 65 61 0.0 0.0 0.00 0.28 0.01 95 1013.7
20260904114507 65 328 0.0 0.0 0.00 0.28 0.01 95 1013.8
20260904113009 65 42 0.0 0.0 0.00 0.28 0.01 95 1013.7
20260904111506 64 61 0.0 0.0 0.00 0.28 0.01 95 1013.5
20260904110005 64 61 0.0 0.0 0.00 0.31 0.01 95 1013.4
20260904104505 64 61 0.0 0.0 0.01 0.31 0.01 95 1013.5
20260904103003 64 61 0.0 0.0 0.01 0.31 0.01 95 1013.5
20260904101503 64 61 0.0 0.0 0.01 0.31 0.01 95 1013.4
20260904100002 64 61 0.0 0.0 0.01 0.38 0.01 95 1013.5
20260904094501 64 61 0.0 0.0 0.00 0.37 0.00 95 1013.4
20260904093001 64 61 0.0 0.0 0.00 0.37 0.00 95 1013.5
20260904091610 64 61 0.0 0.0 0.00 0.37 0.00 95 1013.5
20260904090100 64 62 0.0 0.0 0.00 0.37 0.00 95 1013.5
20260904084603 64 61 0.0 0.0 0.00 0.43 0.00 95 1013.5
20260904083110 63 62 0.0 0.0 0.00 0.43 0.00 95 1013.3
20260904081558 63 62 0.0 0.0 0.00 0.43 0.00 95 1013.5
20260904080056 63 62 0.0 0.0 0.00 0.43 0.00 95 1013.5
20260904074606 63 61 0.0 0.0 0.00 0.43 0.00 95 1013.7
20260904073053 63 62 0.0 0.0 0.00 0.43 0.00 95 1013.7
20260904071553 63 62 0.0 0.0 0.00 0.43 0.00 95 1013.9
20260904070105 63 62 0.0 0.0 0.00 0.43 0.00 95 1013.8
20260904064550 63 62 0.0 0.0 0.00 0.43 0.00 95 1014.1
20260904063055 63 62 0.0 0.0 0.00 0.43 0.00 94 1014.0
20260904061548 63 61 0.0 0.0 0.00 0.43 0.00 94 1014.3
20260904060047 63 62 0.0 0.0 0.00 0.43 0.00 94 1014.6
20260904054545 63 62 0.0 0.0 0.00 0.43 0.00 94 1014.7
20260904053044 63 62 0.0 0.0 0.00 0.43 0.00 94 1014.9
20260904051543 63 62 0.0 0.0 0.00 0.43 0.00 94 1015.0
20260904050042 63 61 0.0 0.0 0.00 0.43 0.00 94 1015.0
20260904044541 63 61 0.0 0.0 0.00 0.43 0.00 94 1015.0
20260904043038 63 62 0.0 0.0 0.00 0.43 0.00 94 1015.2
20260904041537 63 62 0.0 0.0 0.00 0.43 0.00 94 1015.5
20260904040035 63 62 0.0 0.0 0.00 0.43 0.43 94 1015.4
20260904034535 63 62 0.0 0.0 0.00 0.43 0.43 94 1015.5
20260904033036 63 62 0.0 0.0 0.00 0.43 0.43 94 1015.5
20260904031535 63 62 0.0 0.0 0.24 0.43 0.43 94 1015.8
20260904030036 63 62 0.0 0.0 0.24 0.43 0.43 94 1015.6
20260904024533 64 62 0.0 0.0 0.24 0.43 0.43 94 1015.7
20260904023037 63 60 0.0 0.0 0.24 0.43 0.43 94 1016.0
20260904021537 63 75 0.0 0.0 0.00 0.19 0.19 94 1016.6
20260904020032 63 72 0.0 0.0 0.00 0.19 0.19 94 1016.2
20260904014540 63 72 0.0 0.0 0.00 0.19 0.19 93 1016.3
20260904013037 63 71 0.0 0.0 0.00 0.19 0.19 93 1016.2
20260904011531 64 72 0.0 0.0 0.00 0.19 0.19 93 1016.1
20260904010030 63 345 0.0 0.0 0.00 0.19 0.19 93 1015.9
20260904004529 63 346 0.0 0.0 0.00 0.19 0.19 93 1016.0
20260904003029 64 346 0.0 0.0 0.00 0.19 0.19 93 1016.1
20260904001531 64 346 0.0 0.0 0.00 0.19 0.19 92 1015.7
20260904000028 64 346 0.0 0.0 0.00 0.19 0.19 92 1015.5
20260903234526 65 345 0.0 0.0 0.00 0.19 0.19 92 1015.4
20260903233025 66 346 0.0 0.0 0.00 0.19 0.19 91 1015.4
20260903231527 66 345 0.0 0.0 0.00 0.19 0.19 91 1015.5
20260903230027 67 346 0.0 0.0 0.00 0.19 0.19 90 1015.3
20260903224522 68 346 0.0 0.0 0.00 0.19 0.19 90 1015.6
20260903223025 68 346 0.0 0.0 0.00 0.19 0.19 89 1015.8
20260903221524 69 345 0.0 0.0 0.00 0.19 0.19 88 1015.7
20260903220020 69 108 0.0 0.0 0.00 0.19 0.19 87 1015.7
20260903214518 70 110 0.0 0.0 0.00 0.19 0.19 87 1015.8
20260903213018 70 110 0.0 0.0 0.00 0.19 0.19 85 1015.9
20260903211517 71 110 0.0 0.0 0.00 0.19 0.19 85 1016.0
20260903210017 71 110 0.0 0.0 0.00 0.19 0.19 86 1015.9
20260903204517 71 88 0.0 0.0 0.00 0.19 0.19 86 1015.7
20260903203013 70 95 0.0 0.0 0.00 0.19 0.19 87 1016.0
20260903201512 70 101 0.0 0.0 0.00 0.19 0.19 87 1016.0
20260903200011 70 101 0.0 0.0 0.00 0.19 0.19 88 1016.2
20260903194509 70 101 0.0 0.0 0.00 0.19 0.19 87 1016.4
20260903193008 70 101 0.0 0.0 0.00 0.19 0.19 87 1016.4
20260903191508 70 101 0.0 0.0 0.00 0.19 0.19 88 1016.4
20260903190007 70 101 0.0 0.0 0.00 0.19 0.19 87 1016.4
20260903184505 70 36 0.0 0.0 0.00 0.19 0.19 86 1016.6
20260903183004 70 44 0.0 0.0 0.00 0.19 0.19 88 1016.7
20260903181502 69 70 0.0 0.0 0.00 0.19 0.19 88 1016.9
20260903180001 69 82 0.0 0.0 0.00 0.19 0.19 87 1017.1
20260903174559 69 41 0.0 0.0 0.00 0.19 0.19 91 1017.0
20260903173100 68 41 0.0 0.0 0.00 0.19 0.19 90 1016.9
20260903171557 67 45 0.0 0.0 0.00 0.19 0.19 91 1016.9
20260903170056 67 45 0.0 0.0 0.00 0.19 0.19 90 1017.0
20260903164554 67 37 0.0 0.0 0.00 0.19 0.19 91 1017.1
20260903163052 67 52 0.0 0.0 0.00 0.19 0.19 91 1017.1